Evansville, IN

11:37 PM CDT on April 25, 2017 (GMT -0500)
Evansville Regional

Weather History for KEVV - September, 2011

Change the Weather History Date:

Wednesday, September 28, 2011

  Actual Average Record
Temperature  
Mean Temperature 62 °F 64 °F  
Max Temperature 74 °F 76 °F 94 °F (1939)
Min Temperature 50 °F 51 °F 31 °F (1942)
Degree Days  
Heating Degree Days 3 4  
Month to date heating degree days 40 37  
Since 1 July heating degree days 40 38  
Cooling Degree Days 0 3  
Month to date cooling degree days 122 162  
Year to date cooling degree days 1627 1361  
Growing Degree Days 12 (Base 50)    
Moisture  
Dew Point 53 °F    
Average Humidity 71    
Maximum Humidity 93    
Minimum Humidity 49    
Precipitation  
Precipitation T in 0.11 in 1.88 in (1974)
Month to date precipitation 8.20 2.84  
Year to date precipitation 53.18 33.76  
Snow  
Snow 0.00 in 0.00 in 0.00 in (2002)
Month to date snowfall 0.0 0.0  
Since 1 July snowfall 0.0 0.0  
Since 1 September snowfall 0.0 0.0  
Snow Depth 0.00 in    
Sea Level Pressure  
Sea Level Pressure 29.85 in    
Wind  
Wind Speed 2 mph (West)    
Max Wind Speed 12 mph    
Max Gust Speed 18 mph    
Visibility 10 miles    
Events Rain    
T = Trace of Precipitation, MM = Missing Value Source: NWS Daily Summary

Daily Weather History Graph

Daily Weather History Graph

Search for Another Location

Airport or City:

Trip Planner

Search our weather history database for the weather conditions in past years. The results will help you decide how hot, cold, wet, or windy it might be!

Date:

Astronomy

Sep. 28, 2011 Rise Set
Actual Time 6:42 AM CDT 6:38 PM CDT
Civil Twilight 6:16 AM CDT 7:04 PM CDT
Nautical Twilight 5:46 AM CDT 7:34 PM CDT
Astronomical Twilight 5:15 AM CDT 8:05 PM CDT
Moon 8:09 AM CDT (9/28) 7:10 PM CDT (9/28)
Length of Visible Light 12h 47m
Length of Day
11h 55m
New Moon, 2% of the Moon is Illuminated
Sep 28
New Moon
Oct 3
First Quarter
Oct 11
Full
Oct 19
Last Quarter
Oct 26
New

Hourly Weather History & Observations

Time (CDT) Temp. Dew Point Humidity Pressure Visibility Wind Dir Wind Speed Gust Speed Precip Events Conditions
12:54 AM 51.1 °F 48.0 °F 89% 29.86 in 10.0 mi Calm Calm - N/A   Clear
1:54 AM 52.0 °F 48.0 °F 86% 29.86 in 10.0 mi Calm Calm - N/A   Clear
2:54 AM 51.1 °F 48.9 °F 92% 29.86 in 10.0 mi Calm Calm - N/A   Clear
3:54 AM 53.1 °F 50.0 °F 89% 29.86 in 10.0 mi Calm Calm - N/A   Partly Cloudy
4:54 AM 54.0 °F 50.0 °F 86% 29.85 in 10.0 mi Calm Calm - N/A   Mostly Cloudy
5:54 AM 55.0 °F 51.1 °F 86% 29.84 in 10.0 mi Calm Calm - N/A   Overcast
6:54 AM 55.0 °F 51.1 °F 86% 29.86 in 10.0 mi Calm Calm - N/A   Mostly Cloudy
7:54 AM 55.9 °F 53.1 °F 90% 29.86 in 8.0 mi Calm Calm - 0.00 in   Mostly Cloudy
8:54 AM 60.1 °F 53.1 °F 78% 29.86 in 8.0 mi West 3.5 mph - 0.00 in Rain Light Rain
9:54 AM 61.0 °F 53.1 °F 75% 29.87 in 10.0 mi Calm Calm - 0.00 in   Overcast
10:54 AM 63.0 °F 53.1 °F 70% 29.86 in 10.0 mi SW 4.6 mph - N/A   Overcast
11:54 AM 66.0 °F 55.0 °F 68% 29.86 in 10.0 mi WSW 5.8 mph - N/A   Mostly Cloudy
12:54 PM 70.0 °F 54.0 °F 57% 29.84 in 10.0 mi SW 5.8 mph - N/A   Mostly Cloudy
1:54 PM 71.1 °F 52.0 °F 51% 29.83 in 10.0 mi West 5.8 mph - N/A   Overcast
2:54 PM 72.0 °F 53.1 °F 51% 29.82 in 10.0 mi WNW 6.9 mph - N/A   Clear
3:54 PM 72.0 °F 54.0 °F 53% 29.81 in 10.0 mi Variable 3.5 mph - N/A   Mostly Cloudy
4:54 PM 73.4 °F 53.6 °F 50% 29.81 in 10.0 mi WNW 8.1 mph - N/A   Partly Cloudy
5:54 PM 71.1 °F 54.0 °F 55% 29.82 in 10.0 mi NW 4.6 mph - N/A   Clear
6:54 PM 64.9 °F 55.9 °F 73% 29.82 in 10.0 mi Calm Calm - N/A   Clear
7:54 PM 62.1 °F 55.0 °F 78% 29.83 in 10.0 mi Calm Calm - N/A   Clear
8:54 PM 60.1 °F 55.9 °F 86% 29.85 in 10.0 mi Calm Calm - N/A   Mostly Cloudy
9:54 PM 60.1 °F 55.9 °F 86% 29.86 in 10.0 mi Calm Calm - N/A   Mostly Cloudy
10:54 PM 59.0 °F 55.0 °F 87% 29.86 in 10.0 mi Calm Calm - N/A   Partly Cloudy
11:54 PM 55.9 °F 53.1 °F 90% 29.86 in 7.0 mi Calm Calm - N/A   Clear